FW0850 Weather Reports


time (UTC)temp
F
wind
direction
speed
knots
gust
knots
rain 1hr
in
rain 24hr
in
rain mn
in
humidity
%
barometer
mb
20260906173015 68 82 1.7 7.0 0.00 0.00 0.00 83 1020.8
20260906171504 68 77 2.6 5.2 0.00 0.00 0.00 84 1021.1
20260906170004 67 50 3.5 6.1 0.00 0.00 0.00 85 1021.1
20260906164502 67 69 3.5 7.0 0.00 0.00 0.00 86 1021.2
20260906163001 67 64 3.5 6.1 0.00 0.00 0.00 84 1021.3
20260906161604 68 51 2.6 6.1 0.00 0.00 0.00 84 1021.2
20260906160059 68 355 1.7 5.2 0.00 0.00 0.00 84 1021.2
20260906154557 68 59 2.6 4.3 0.00 0.00 0.00 83 1021.2
20260906153058 68 52 1.7 8.7 0.00 0.00 0.00 83 1021.2
20260906151552 66 44 3.5 8.7 0.00 0.00 0.00 85 1021.3
20260906150100 66 36 1.7 6.1 0.00 0.00 0.00 84 1021.3
20260906144602 66 59 1.7 6.1 0.00 0.00 0.00 85 1021.4
20260906143050 66 60 1.7 6.1 0.00 0.00 0.00 84 1021.2
20260906141534 66 354 1.7 5.2 0.00 0.00 0.00 83 1021.4
20260906140021 67 20 1.7 6.1 0.00 0.00 0.00 82 1021.6
20260906134515 67 323 0.9 4.3 0.00 0.00 0.00 84 1021.5
20260906133010 65 13 0.0 1.7 0.00 0.00 0.00 85 1021.7
20260906131522 65 14 0.0 0.9 0.00 0.00 0.00 85 1021.8
20260906130007 65 3 0.0 0.9 0.00 0.00 0.00 87 1021.6
20260906124501 64 51 0.0 0.9 0.00 0.00 0.00 91 1021.2
20260906123104 62 304 0.0 0.0 0.00 0.00 0.00 93 1021.1
20260906121559 61 294 0.0 1.7 0.00 0.00 0.00 94 1021.0
20260906120104 60 310 0.0 0.0 0.00 0.00 0.00 95 1020.7
20260906114557 60 286 0.0 0.0 0.00 0.00 0.00 95 1020.7
20260906113100 59 300 0.0 0.9 0.00 0.00 0.00 96 1020.6
20260906111553 59 310 0.0 1.7 0.00 0.00 0.00 96 1020.4
20260906110051 59 310 0.9 1.7 0.00 0.00 0.00 97 1020.2
20260906104608 59 310 0.0 0.0 0.00 0.00 0.00 97 1020.0
20260906103047 59 310 0.0 0.0 0.00 0.00 0.00 97 1020.0
20260906101547 59 310 0.0 0.0 0.00 0.00 0.00 97 1020.0
20260906100046 59 310 0.0 0.0 0.00 0.00 0.00 97 1020.1
20260906094608 59 311 0.0 0.0 0.00 0.00 0.00 97 1020.1
20260906093046 60 323 0.0 0.0 0.00 0.00 0.00 97 1020.1
20260906091544 60 335 0.0 0.0 0.00 0.00 0.00 97 1019.9
20260906090038 60 335 0.0 0.0 0.00 0.00 0.00 96 1020.0
20260906084539 61 335 0.0 0.0 0.00 0.00 0.00 96 1020.0
20260906083036 61 335 0.0 0.0 0.00 0.00 0.00 95 1020.0
20260906081544 61 335 0.0 0.0 0.00 0.00 0.00 94 1020.0
20260906080030 62 335 0.0 0.0 0.00 0.00 0.00 94 1020.2
20260906074532 62 335 0.0 0.0 0.00 0.00 0.00 94 1020.3
20260906073026 62 338 0.0 0.0 0.00 0.00 0.00 94 1020.3
20260906071525 62 338 0.0 0.0 0.00 0.00 0.00 95 1020.4
20260906070023 62 340 0.0 0.0 0.00 0.00 0.00 94 1020.0
20260906064522 63 340 0.0 0.0 0.00 0.00 0.00 94 1020.0
20260906063018 63 340 0.0 0.0 0.00 0.00 0.00 93 1019.9
20260906061529 63 340 0.0 0.0 0.00 0.00 0.00 92 1020.0
20260906060015 64 340 0.0 1.7 0.00 0.00 0.00 91 1019.9
20260906054515 64 340 0.0 1.7 0.00 0.00 0.00 90 1020.1
20260906053015 64 333 0.0 0.0 0.00 0.00 0.00 90 1020.0
20260906051508 65 321 0.0 0.0 0.00 0.00 0.00 90 1020.0
20260906050005 65 330 0.0 0.9 0.00 0.00 0.00 90 1020.1
20260906044504 65 18 0.0 0.0 0.00 0.00 0.00 90 1020.3
20260906043002 65 21 0.0 0.0 0.00 0.00 0.00 90 1020.3
20260906041501 65 3 0.0 0.9 0.00 0.00 0.00 89 1020.4
20260906040004 65 353 0.0 0.0 0.00 0.00 0.00 89 1020.3
20260906034606 65 330 0.0 2.6 0.00 0.00 0.00 88 1020.3
20260906033059 66 309 0.0 1.7 0.00 0.00 0.00 87 1019.9
20260906031602 66 7 0.9 5.2 0.00 0.00 0.00 87 1019.8
20260906030056 66 77 0.0 2.6 0.00 0.00 0.00 88 1019.9
20260906024601 66 345 0.0 0.9 0.00 0.00 0.00 89 1019.7
20260906023052 65 60 0.0 1.7 0.00 0.00 0.00 89 1019.4
20260906021601 65 31 0.0 2.6 0.00 0.00 0.00 90 1019.1
20260906020057 65 326 0.0 3.5 0.00 0.00 0.00 91 1019.2
20260906014557 65 51 0.0 1.7 0.00 0.00 0.00 90 1018.9
20260906013019 65 342 0.0 0.9 0.00 0.00 0.00 91 1018.8
20260906011519 65 14 0.0 0.9 0.00 0.00 0.00 91 1018.8
20260906010016 65 308 0.0 1.7 0.00 0.00 0.00 91 1019.0
20260906004514 65 73 0.0 2.6 0.00 0.00 0.00 91 1018.7
20260906003021 65 17 0.0 2.6 0.00 0.00 0.00 91 1018.6
20260906001512 65 356 0.9 3.5 0.00 0.00 0.00 91 1018.6
20260906000042 65 360 0.9 5.2 0.00 0.00 0.00 91 1018.7
20260905234541 66 354 0.0 3.5 0.00 0.00 0.00 91 1019.1
20260905233043 65 25 0.0 6.1 0.00 0.00 0.00 91 1019.4
20260905231542 66 13 0.0 2.6 0.00 0.00 0.00 91 1019.4
20260905230038 66 325 0.0 3.5 0.00 0.00 0.00 91 1019.5
20260905224539 66 19 0.9 4.3 0.00 0.00 0.00 90 1019.4
20260905223039 66 51 0.0 1.7 0.00 0.00 0.00 90 1019.6
20260905221544 66 49 0.9 3.5 0.00 0.00 0.00 90 1019.6
20260905220034 66 359 0.0 4.3 0.00 0.00 0.00 90 1019.5
20260905214533 65 33 0.0 1.7 0.00 0.00 0.00 91 1019.8
20260905213035 65 39 0.9 4.3 0.00 0.00 0.00 92 1019.9
20260905211540 65 53 0.9 2.6 0.00 0.00 0.00 91 1020.1
20260905210028 65 106 0.9 3.5 0.00 0.00 0.00 91 1020.1
20260905204528 65 68 0.0 3.5 0.00 0.00 0.00 91 1020.3
20260905203032 65 1 0.0 4.3 0.00 0.00 0.00 91 1020.1
20260905201605 65 28 1.7 4.3 0.00 0.00 0.00 91 1020.3
20260905200123 66 47 0.0 3.5 0.00 0.00 0.00 91 1020.3
20260905194554 66 71 1.7 7.0 0.00 0.00 0.00 91 1020.2
20260905193053 66 332 1.7 5.2 0.00 0.00 0.00 90 1020.2
20260905191553 66 56 1.7 3.5 0.00 0.00 0.00 90 1020.1
20260905190052 65 293 0.9 4.3 0.00 0.00 0.00 91 1020.3
20260905184550 65 352 1.7 5.2 0.00 0.00 0.00 91 1020.3
20260905183050 65 359 1.7 6.1 0.00 0.00 0.00 92 1020.1
20260905181549 66 354 0.9 6.1 0.00 0.00 0.00 91 1020.3
20260905180046 65 40 1.7 5.2 0.00 0.00 0.00 92 1020.3
20260905174514 65 7 0.9 3.5 0.00 0.00 0.00 94 1020.4